STARLINK-30218, 57604

Orbit data source: Space-Track

STARLINK-30218, 57604 is a payload satellite owned by SpaceX/Seattle (US) in LEO that was launched on Fri, 11 Aug 2023 UTC via an FALCON 9 launch vehicle from the Air Force Eastern Test Range (AFETR). Payload-class satellites include a variety of spacecraft equipped with specific instruments for various scientific and technological missions. These include communications satellites like Starlink; space stations such as the ISS; scientific satellites like the Hubble; Earth observation satellites from companies like Planet Labs, Umbra, and HawkEye 360; GPS; miniature CubeSats for education and research; and military/defense satellites.

Loading next visibility...
Identifier
57604, 2023-119C
Orbit
LEO
Country
Flag of USUS
Related business
Manufacturer
SpaceX/Seattle
Mission
Operational Commercial Communications
Bus & Motor
STARLINK V2M, Unknown motor
Mass
730 kg wet, ~700 kg dry
Launch date (UTC)
2023-08-11 (3 years ago)
Launch vehicle
FALCON 9
Launch site
Air Force Eastern Test Range (AFETR)
Object type
Payload
Rocket body
Debris
Shape & HBR
Box + 2 Pan, 17.7 m
Radar Cross Section
33.884 m², Large (>1 m²)

Expand to show TLE details & history
Last TLE update: 12 hours ago

TLE from 12 hours ago
0 STARLINK-30218
1 57604U 23119C   26094.88885362 -.00029817  00000-0 -11040-2 0  9994
2 57604  43.0077 293.5879 0005299 276.8571  83.1678 15.26794986147090
Epoch: 2026-04-04T21:19Z
TLE epoch observation values (Epoch: 2026-04-04T21:19:56.952Z)
Latitude
Longitude
140.39844°
Altitude
484.746 km
Speed
7.625 km/s
True Right ascension
19h 34m 21s
True Declination
0° 00' 00"
Sunlit
Object was in daylight at epoch
Visualization orbit readout
Latitude
Unknown
Longitude
Unknown
Altitude
Unknown
Speed
Unknown
Apparent Right ascension
Unknown
Apparent Declination
Unknown
Sunlit
N/A
Visualization observer readout
Local Sidereal Time
15:25:20
Azimuth
Unknown
Elevation
Unknown
Doppler factor
Unknown
Orbital elements
Apogee altitude
490.982 km
Perigee altitude
483.706 km
Semi-major axis
6,865.481 km
Eccentricity
0.00053
Inclination
43.0077°
RAAN
293.5879°
Arg. of periapsis
276.8571°
True anomaly
83.2281°
Mean anomaly
83.1678°
Eccentric anomaly
83.19795°
Mean motion
3.81537 °/min
Orbital period
94.36 mins
BSTAR
-0.001104
Loading maneuver chart data...
Computing Atmospheric mass density...
Loading historical data...
Loading historical data...
Loading historical data...
Loading historical data...
Loading historical data...
Loading historical data...
Loading historical data...

Documentation

Showing up to 5 results
|